Location: Moutot
(47.7205°N, 3.9670°E)
Time: 17:56:17
(UTC+00:00)

Daily predictions for brighter satellites

Satellite Brightness Start Highest point End
(mag) Time Altitude Azimuth Time Altitude Azimuth Time Altitude Azimuth
Cosmos 1703 4.0 20:17:13 10° SSE 20:20:44 34° E 20:24:16 10° NNE
COSMOS 2428 4.1 20:17:44 10° SE 20:21:35 19° E 20:25:27 10° ENE
Cosmos 1812 Rocket 3.6 20:17:44 10° N 20:22:06 88° E 20:26:26 10° S
Cosmos 1844 4.1 20:17:44 10° NNW 20:23:27 56° ENE 20:29:03 10° SE
Cosmos 2322 4.4 20:20:10 10° SSE 20:25:13 33° ESE 20:30:17 10° NE
CZ-2C R/B 4.4 20:21:11 10° N 20:25:55 65° WNW 20:30:38 10° SSW
Cosmos 1602 Rocket 3.7 20:25:03 10° SSW 20:29:28 80° W 20:33:57 10° N
Cosmos 2263 Rocket 4.0 20:27:00 10° NW 20:31:34 27° WSW 20:36:07 10° SSW
Cosmos 1709 Rocket 4.4 20:26:24 10° SSE 20:32:19 46° E 20:38:20 10° NNE
Nadezhda 1 Rocket 4.1 20:26:15 10° N 20:32:42 88° ENE 20:39:06 10° S
Atlas Centaur 2 4.0 20:30:52 10° SSW 20:34:25 16° S 20:38:23 10° SE
MetOp-B 4.2 20:29:12 10° SSE 20:34:33 88° ENE 20:39:58 10° NNW
Terra 3.2 20:32:11 10° ESE 20:36:07 26° ENE 20:40:04 10° N
CARTOSAT-1 4.4 20:33:12 10° SE 20:37:08 36° ENE 20:41:05 10° N
Cosmos 2219 Rocket 3.1 20:32:49 10° SSE 20:37:28 28° ESE 20:42:08 10° NE
Cosmos 2360 Rocket 2.2 20:33:31 10° SSW 20:39:08 75° ESE 20:44:49 10° NNE
IGS 5A 3.5 20:36:05 10° SSE 20:40:13 71° ENE 20:44:23 10° N
Cosmos 2333 Rocket 2.8 20:42:03 10° S 20:47:09 36° ESE 20:52:19 10° NE
ATLAS 2AS CENTAUR R/B 4.2 20:43:12 10° NW 20:50:14 35° NNE 20:56:45 10° E
Cosmos 1315 Rocket 4.0 20:47:20 10° N 20:51:00 31° ENE 20:54:13 13° SE
Resurs 01 Rocket 2.9 20:48:00 10° SSW 20:52:07 38° W 20:56:16 10° NNW
CZ-2C R/B 4.4 20:48:59 10° N 20:53:53 35° WNW 20:58:40 10° SW
Cosmos 1818 3.6 20:48:54 10° SW 20:54:20 87° SE 20:59:49 10° NE
Cosmos-2242 3.0 20:50:17 10° N 20:54:39 87° E 20:59:01 10° S
Cosmos 773 Rocket 4.2 20:52:04 10° S 20:57:13 54° ESE 21:02:22 10° NNE
SL-16 R/B 3.7 20:52:53 10° WSW 20:58:14 41° NW 21:03:36 10° NNE
Cosmos 2221 4.0 20:55:50 10° NNE 20:59:26 24° ENE 21:02:29 12° ESE
ERS-1 Rocket 3.1 20:56:51 12° SSE 21:01:31 67° ENE 21:06:32 10° N
GEOS 3 Rocket 3.7 20:58:33 10° NE 21:03:58 74° SE 21:09:21 10° SW
USA 215 3.4 21:01:04 10° ENE 21:07:26 51° SE 21:13:46 10° SSW
Cosmos 2278 Rocket 3.2 21:03:02 10° NNW 21:08:17 37° NE 21:13:09 12° ESE
ATLAS 5 CENTAUR R/B 1.7 21:06:52 10° SW 21:11:01 79° NW 21:15:44 10° NE
USA 245 4.0 21:08:42 10° S 21:11:51 45° W 21:15:50 10° NNW
Meteor 1-11 4.2 21:06:21 10° S 21:11:55 69° E 21:17:35 10° NNE
Cosmos 1844 Rocket 3.2 21:07:47 10° NW 21:13:13 55° WSW 21:18:16 12° S
Gblst 52 Del rocket 4.4 21:08:16 10° WNW 21:13:57 81° NNE 21:20:16 10° ESE
Cosmos 1400 Rocket 3.3 21:10:03 10° NNW 21:13:58 55° W 21:17:41 11° S
Cosmos 1758 Rocket 4.3 21:10:36 10° SSW 21:15:00 56° WNW 21:19:28 10° N
SPOT 5 2.9 21:13:56 14° SSE 21:18:14 81° ENE 21:23:04 10° NNW
Lacrosse 5 rocket 3.9 21:16:15 10° WNW 21:19:39 23° N 21:22:55 10° NE
Spot 2 Rocket 4.4 21:17:18 10° S 21:22:10 46° W 21:27:06 10° NNW
USA 81 4.0 21:19:52 11° S 21:24:52 77° E 21:30:10 10° N
Cosmos 2058 4.3 21:25:00 18° SE 21:26:50 23° E 21:30:08 10° NE
BREEZE M DEB (TANK) 2.4 21:24:53 10° W 21:27:09 33° SSW 21:27:38 28° S
Cosmos 2181 Rocket 4.0 21:22:29 10° N 21:28:53 89° W 21:34:15 15° S
Cosmos 2074 Rocket 4.2 21:29:15 16° SSE 21:34:04 53° E 21:40:05 10° NNE
SPOT 1/Viking Rocket 4.4 21:31:52 10° S 21:36:47 45° W 21:41:45 10° NNW
Cosmos 1953 Rocket 4.1 21:33:52 10° SSW 21:38:07 57° WNW 21:42:24 10° N
USA 267 3.4 21:34:05 11° ESE 21:40:29 75° NNE 21:47:03 10° NW
Cosmos 2084 3.5 21:41:03 10° NW 21:45:32 77° SW 21:48:05 25° SSE
Cosmos 1842 Rocket 3.5 21:42:05 10° N 21:46:27 81° E 21:49:02 24° SSE
JB-3 4.5 21:44:21 10° NNE 21:48:08 52° E 21:49:57 27° SSE
MTI 3.7 21:49:03 10° NNE 21:52:06 60° E 21:53:10 35° SSE
Cosmos 923 Rocket 4.3 21:52:20 21° S 21:55:33 50° ESE 22:00:40 10° NNE
ATLAS CENTAUR R/B 1.4 21:53:21 10° NW 21:56:58 53° WSW 21:58:26 30° S
Cosmos 1825 3.7 21:58:09 19° ESE 21:58:57 21° E 22:01:50 10° NE
Cosmos 1980 4.0 21:56:55 22° S 22:00:19 47° ESE 22:05:43 10° NE
ALOS 2 4.4 21:58:03 13° ESE 22:00:33 21° ENE 22:03:52 10° NNE
COSMOS 2428 2.9 21:59:32 10° SSW 22:05:12 75° WNW 22:10:55 10° NNE
Cosmos 1869 3.4 22:03:26 10° NNW 22:07:25 72° W 22:09:22 29° S
NOSS 0 Rocket 3.9 22:07:31 15° SSW 22:12:36 70° ESE 22:18:46 10° NNE
Terra 2.7 22:10:33 19° SSW 22:13:40 43° W 22:18:12 10° NNW
NOSS 3-4 (A) 3.9 22:07:10 10° NW 22:14:06 75° NE 22:19:46 19° SE
NOSS 3-4 (C) 4.0 22:07:17 10° NW 22:14:13 74° NE 22:19:55 19° SE
Cosmos 2237 Rocket 2.3 22:14:58 23° S 22:18:33 61° ESE 22:24:11 10° NNE
Genesis I 3.7 22:18:35 36° SE 22:19:08 39° ESE 22:22:47 10° NE
BREEZE-M DEB 4.5 22:16:22 10° WNW 22:20:40 66° SSW 22:38:19 10° SE
Cosmos 2219 Rocket 2.9 22:15:40 10° SW 22:21:06 52° WNW 22:26:37 10° NNE
Cosmos 2344 3.8 22:16:02 19° S 22:21:06 48° ESE 22:28:35 10° NE
Atlas Centaur 2 4.2 22:18:46 10° SW 22:21:21 15° SSW 22:21:21 15° SSW
Elektron 1 4.3 22:21:21 35° SSW 22:22:33 60° SE 22:27:35 10° NE
NOSS 3-3 (A) 4.3 22:17:58 10° SW 22:23:52 68° NW 22:30:36 10° NE
NOSS 3-3 (C) 4.3 22:18:03 10° SW 22:23:58 69° NW 22:30:43 10° NE
DELTA 2 R/B (1) 4.2 22:23:56 10° SW 22:28:49 32° SSE 22:30:03 29° SE
Thor Agena Rocket 3.5 22:25:45 10° NNE 22:30:52 66° ESE 22:33:18 30° S
Cosmos 2333 Rocket 3.4 22:25:56 10° SW 22:31:20 43° NW 22:36:48 10° NNE
Cosmos 2184 Rocket 4.3 22:27:10 16° SSW 22:32:14 63° WNW 22:38:31 10° N
Cosmos 2221 3.7 22:33:04 10° NNW 22:37:06 36° W 22:39:20 21° SW
BREEZE-M DEB (TANK) 1.5 22:36:40 10° WNW 22:40:46 82° NNE 22:41:22 49° E
Iridium 2 3.6 22:37:29 10° N 22:41:20 85° W 22:42:26 45° S
Cosmos 1371 Rocket 4.0 22:36:29 10° NNW 22:41:47 87° ENE 22:44:15 33° SSE
ATLAS 2AS CENTAUR R/B 2.8 22:34:27 10° NW 22:42:06 87° SW 22:46:25 26° SE
Cosmos 1892 3.4 22:41:59 26° SW 22:43:45 48° WNW 22:47:27 10° N
EO 1 Del DPAF 3.1 22:40:10 10° NNE 22:43:57 79° ESE 22:44:59 46° S
Cosmos 1766 Rocket 4.2 22:44:24 33° SE 22:45:35 41° E 22:49:44 10° NNE
MOS 1-B Rocket 4.4 22:38:01 10° NNE 22:45:50 77° ESE 22:49:56 26° S
Okean 3 Rocket 3.9 22:47:03 37° SE 22:48:22 51° E 22:52:41 10° NNE
Aureole 2 Rocket 2.6 22:46:06 10° N 22:48:51 44° ENE 22:48:59 44° ENE
Cosmos 1328 Rocket 4.4 22:44:51 10° N 22:48:56 39° ENE 22:50:25 29° ESE
USA 215 3.7 22:44:06 10° NE 22:50:35 65° NNW 22:57:03 10° WSW
Cosmos 1606 3.2 22:47:31 10° N 22:51:19 50° ENE 22:52:19 39° ESE
Cosmos 2112 Rocket 4.0 22:48:24 25° SSW 22:51:34 86° WNW 22:56:58 10° NNE
Cosmos 2278 Rocket 2.9 22:47:07 10° NW 22:52:27 42° WSW 22:54:59 27° SSW
Cosmos 2218 Rocket 4.5 22:50:54 28° SSE 22:53:54 48° E 22:59:56 10° NNE
Cosmos 2297 3.9 22:48:19 10° NNW 22:54:03 65° ENE 22:57:11 27° SE
Cosmos 158 Rocket 3.9 22:52:56 25° SSW 22:55:47 73° WNW 23:00:42 10° NNE
ATLAS 5 CENTAUR R/B 4.5 22:53:08 10° WNW 22:56:30 20° NNW 23:00:12 10° NNE
Cosmos 1420 Rocket 4.4 22:52:44 10° NNW 22:57:58 58° ENE 23:00:36 28° SE
Cosmos 2366 rocket 4.4 22:56:35 29° SSE 22:59:35 50° E 23:05:41 10° NNE
Lacrosse 5 rocket 3.4 22:56:20 10° NW 22:59:49 26° NNE 23:03:09 10° ENE
Cosmos 1943 Rocket 3.3 22:55:15 10° NNW 23:00:35 39° NE 23:04:40 16° ESE
Spot 4 4.1 22:59:07 34° SSW 23:01:01 58° W 23:05:45 10° NNW
Cosmos 1633 4.4 23:01:11 18° E 23:01:29 19° E 23:04:04 10° NE
SL-16 R/B 2.5 23:00:46 34° SSE 23:02:54 52° ESE 23:08:24 10° NE
TIMED 4.4 23:01:49 39° SSW 23:03:24 88° ESE 23:07:48 10° NNE
Cosmos 2058 4.3 23:01:11 18° SW 23:03:34 33° WNW 23:07:21 10° N
Cosmos 1408 3.4 23:03:24 31° WSW 23:04:35 42° WNW 23:08:01 10° N
Cosmos 2056 Rocket 3.6 23:00:19 10° NNW 23:05:43 71° WSW 23:07:58 36° S
Cosmos 2341 Rocket 4.0 23:11:46 29° SSW 23:15:09 80° W 23:21:25 10° N
Cosmos 332 Rocket 4.2 23:14:36 10° NNW 23:19:21 56° ENE 23:21:28 30° SE
Cosmos 1680 Rocket 4.4 23:15:58 15° SW 23:20:05 46° WNW 23:25:14 10° NNE
Meteor 2-3 Rocket 3.9 23:21:02 35° SSE 23:23:18 60° E 23:28:55 10° NNE
USA 267 3.8 23:21:24 31° S 23:23:48 41° SW 23:29:57 10° WNW
Cosmos 2151 3.6 23:23:52 32° SW 23:25:30 50° WNW 23:29:41 10° N
IRIDIUM 104 4.3 23:23:26 38° S 23:25:30 88° E 23:30:46 10° N
Helios 1A 3.1 23:24:53 42° SE 23:26:07 66° ENE 23:30:16 10° N
Cosmos 405 4.0 23:25:07 10° N 23:28:27 36° ENE 23:29:08 33° E
Meteor 1-26 Rocket 4.3 23:26:33 10° N 23:32:36 81° ENE 23:35:20 34° SSE
Cosmos 1452 Rocket 3.5 23:27:30 10° NNW 23:32:48 76° ENE 23:35:06 35° SSE
CZ-4C R/B 3.7 23:26:42 10° NW 23:33:24 49° NE 23:41:11 10° ESE
SL-8 Rocket 4.0 23:30:59 31° SSW 23:34:06 77° W 23:40:18 10° N
Cosmos 1825 3.6 23:32:56 24° WSW 23:34:17 31° WNW 23:37:42 10° N
COSMOS 2455 3.0 23:28:32 10° NNW 23:34:36 71° NE 23:38:24 24° SE
IRIDIUM 114 4.3 23:32:35 37° SSW 23:34:41 78° W 23:39:56 10° N
Cosmos 1340 2.5 23:34:23 62° S 23:34:57 84° E 23:38:45 10° NNE
ALOS 2 3.1 23:35:27 38° SW 23:36:36 47° W 23:40:52 10° NNW
Cosmos 1408 Rocket 3.5 23:35:56 48° S 23:37:07 84° E 23:41:33 10° N
Cosmos 1933 3.4 23:33:25 10° NNW 23:37:24 64° W 23:38:13 50° SSW
Cosmos 1151 Rocket 3.2 23:34:41 10° NNW 23:38:58 60° W 23:40:03 44° SSW
Meteor 2-12 Rocket 4.4 23:37:27 33° SSW 23:40:24 82° W 23:46:36 10° N
IRIDIUM 103 4.5 23:41:42 35° SSW 23:43:50 65° W 23:49:03 10° N
APEX 2.9 23:42:08 10° NNW 23:44:22 56° NNW 23:44:22 56° NNW
Cosmos 1727 Rocket 4.0 23:38:47 10° N 23:45:04 86° E 23:48:04 33° S
Cosmos 2369 Rocket 2.6 23:39:43 10° NNW 23:45:15 57° ENE 23:48:49 22° SE
Cosmos 44 3.1 23:43:38 34° SW 23:45:25 73° NW 23:49:53 10° NE
Cosmos 1500 Rocket 4.0 23:44:49 40° SE 23:45:57 51° E 23:50:14 10° NNE
GP-B 3.8 23:43:06 10° N 23:47:22 46° W 23:48:50 33° SW
SL-4 R/B 3.3 23:48:59 17° NW 23:48:59 17° NW 23:49:39 10° NNW
Cosmos 371 Rocket 3.4 23:44:14 10° NNW 23:49:02 60° WSW 23:50:25 42° SSW
SeaSat 1 4.4 23:47:34 10° ENE 23:50:10 14° ESE 23:51:20 13° ESE
Helios 1B rocket 3.2 23:50:41 10° NNE 23:54:33 38° E 23:55:23 34° SE
CREW DRAGON DEMO-1 DEB 3.4 23:54:49 38° WNW 23:55:43 57° NNW 23:58:45 10° ENE
